{"data":{"norad_id":67732,"epoch":"2026-09-19T02:03:49.339008Z","epoch_age_seconds":188582,"freshness":"STALE","line1":"1 67732U 26026M   26262.08598772  .00006242  00000+0  19554-3 0  9995","line2":"2 67732  97.2844 313.9337 0000799 110.2039 249.9289 15.33442376 33761","mean_motion":15.33442376,"eccentricity":7.99e-5,"inclination_deg":97.2844,"raan_deg":313.9337,"arg_perigee_deg":110.2039,"mean_anomaly_deg":249.9289,"bstar":0.00019554,"rev_number":3376,"period_min":93.906365347504,"perigee_km":465.00417099739,"apogee_km":466.09779233686,"semimajor_km":6843.6879816671,"source":"CELESTRAK","updated_at":"2026-09-20T09:00:43.658728Z"}}